FIN46T ESSA-ENBR

Flight info

Callsign FIN46T
Flight time 1h 20m
Altitude 36000
Route ARS N623 IBGAX DCT EBURI N623 ESEBA DCT ATLAP DCT PESUR
Aircraft A320/M-SDE3FGHIRWY/LB1

Departure

Time 2026-05-06 16:15
Airport Stockholm-Arlanda Airport (ESSA)

Arrival

Time 2026-05-06 17:36
Airport Bergen Airport, Flesland (ENBR)
Time Latitude Longitude Altitude Speed Heading
2026-05-06 15:43 59.65164 17.92621 138 ft 0 kts 161°
2026-05-06 16:06 59.65183 17.92609 137 ft 4 kts 168°
2026-05-06 16:06 59.65209 17.92603 137 ft 4 kts 185°
2026-05-06 16:06 59.65234 17.92615 137 ft 4 kts 219°
2026-05-06 16:07 59.65243 17.92645 137 ft 2 kts 288°
2026-05-06 16:07 59.65243 17.92647 137 ft 0 kts 288°
2026-05-06 16:09 59.65243 17.92646 137 ft 1 kts 288°
2026-05-06 16:09 59.65256 17.92574 137 ft 6 kts 290°
2026-05-06 16:10 59.65270 17.92504 137 ft 5 kts 292°
2026-05-06 16:10 59.65289 17.92412 138 ft 8 kts 291°
2026-05-06 16:10 59.65314 17.92309 138 ft 10 kts 307°
2026-05-06 16:10 59.65369 17.92280 138 ft 8 kts 10°
2026-05-06 16:11 59.65446 17.92307 138 ft 18 kts 10°
2026-05-06 16:11 59.65564 17.92348 138 ft 16 kts 10°
2026-05-06 16:11 59.65670 17.92386 138 ft 15 kts 10°
2026-05-06 16:11 59.65765 17.92419 138 ft 14 kts 10°
2026-05-06 16:12 59.65865 17.92457 138 ft 14 kts 12°
2026-05-06 16:12 59.65959 17.92495 138 ft 18 kts 12°
2026-05-06 16:12 59.66089 17.92540 138 ft 18 kts
2026-05-06 16:12 59.66211 17.92583 138 ft 19 kts 11°
2026-05-06 16:13 59.66341 17.92631 138 ft 18 kts
2026-05-06 16:13 59.66463 17.92656 138 ft 17 kts 350°
2026-05-06 16:13 59.66565 17.92584 138 ft 14 kts 338°
2026-05-06 16:13 59.66617 17.92466 141 ft 10 kts 272°
2026-05-06 16:14 59.66597 17.92366 141 ft 7 kts 204°
2026-05-06 16:14 59.66568 17.92354 141 ft 0 kts 189°
2026-05-06 16:14 59.66528 17.92340 142 ft 30 kts 189°
2026-05-06 16:15 59.66078 17.92176 146 ft 97 kts 190°
2026-05-06 16:15 59.65225 17.91874 144 ft 149 kts 191°
2026-05-06 16:15 59.64149 17.91465 614 ft 153 kts 189°
2026-05-06 16:15 59.63136 17.91047 1414 ft 145 kts 191°
2026-05-06 16:16 59.62097 17.90581 1812 ft 164 kts 194°
2026-05-06 16:16 59.61101 17.89235 2089 ft 191 kts 232°
2026-05-06 16:16 59.60365 17.86863 2439 ft 211 kts 236°
2026-05-06 16:16 59.59568 17.84322 3023 ft 221 kts 238°
2026-05-06 16:17 59.58751 17.81735 3845 ft 224 kts 239°
2026-05-06 16:17 59.57959 17.78961 4349 ft 244 kts 242°
2026-05-06 16:17 59.57159 17.75896 4983 ft 257 kts 245°
2026-05-06 16:17 59.56720 17.72453 5783 ft 263 kts 269°
2026-05-06 16:18 59.56800 17.68835 6660 ft 265 kts 272°
2026-05-06 16:18 59.56890 17.65240 7518 ft 266 kts 272°
2026-05-06 16:18 59.56974 17.61580 8413 ft 267 kts 272°
2026-05-06 16:18 59.57055 17.57909 9294 ft 269 kts 272°
2026-05-06 16:19 59.57133 17.54217 10157 ft 269 kts 273°
2026-05-06 16:19 59.57211 17.50409 10531 ft 289 kts 273°
2026-05-06 16:19 59.57294 17.46290 10762 ft 310 kts 272°
2026-05-06 16:19 59.57377 17.41967 11328 ft 318 kts 272°
2026-05-06 16:20 59.57458 17.37579 12041 ft 322 kts 272°
2026-05-06 16:20 59.57536 17.33147 12773 ft 325 kts 271°
2026-05-06 16:20 59.57617 17.28665 13495 ft 328 kts 271°
2026-05-06 16:20 59.57700 17.24130 13877 ft 331 kts 271°
2026-05-06 16:21 59.57779 17.19575 14344 ft 333 kts 271°
2026-05-06 16:21 59.57857 17.15002 15066 ft 333 kts 271°
2026-05-06 16:21 59.57933 17.10436 15816 ft 332 kts 270°
2026-05-06 16:21 59.58008 17.05871 16497 ft 334 kts 270°
2026-05-06 16:22 59.58084 17.01287 17141 ft 335 kts 270°
2026-05-06 16:22 59.58161 16.96671 17775 ft 338 kts 270°
2026-05-06 16:22 59.58235 16.92085 18384 ft 340 kts 270°
2026-05-06 16:22 59.58308 16.87415 18948 ft 341 kts 269°
2026-05-06 16:23 59.58376 16.82706 19513 ft 343 kts 269°
2026-05-06 16:23 59.58441 16.77977 20084 ft 345 kts 269°
2026-05-06 16:23 59.58506 16.73231 20655 ft 346 kts 269°
2026-05-06 16:23 59.58571 16.68473 21220 ft 348 kts 268°
2026-05-06 16:24 59.58758 16.63690 21767 ft 353 kts 276°
2026-05-06 16:24 59.59234 16.58988 22299 ft 355 kts 277°
2026-05-06 16:24 59.59725 16.54191 22824 ft 357 kts 276°
2026-05-06 16:24 59.60212 16.49395 23382 ft 359 kts 276°
2026-05-06 16:25 59.60703 16.44534 23837 ft 360 kts 276°
2026-05-06 16:25 59.61191 16.39673 24245 ft 361 kts 276°
2026-05-06 16:25 59.61676 16.34791 24646 ft 363 kts 275°
2026-05-06 16:25 59.62160 16.29888 25025 ft 365 kts 275°
2026-05-06 16:26 59.62647 16.24948 25398 ft 366 kts 275°
2026-05-06 16:26 59.63142 16.19997 25764 ft 368 kts 276°
2026-05-06 16:26 59.63688 16.15035 26131 ft 371 kts 276°
2026-05-06 16:26 59.64269 16.10056 26487 ft 373 kts 276°
2026-05-06 16:27 59.64866 16.05054 26834 ft 375 kts 276°
2026-05-06 16:27 59.65462 16.00035 27167 ft 376 kts 276°
2026-05-06 16:27 59.66054 15.94973 27512 ft 378 kts 276°
2026-05-06 16:27 59.66631 15.89962 27837 ft 379 kts 275°
2026-05-06 16:28 59.67208 15.84861 28202 ft 381 kts 275°
2026-05-06 16:28 59.67784 15.79738 28523 ft 382 kts 275°
2026-05-06 16:28 59.68361 15.74584 28827 ft 384 kts 275°
2026-05-06 16:28 59.68937 15.69423 29127 ft 385 kts 275°
2026-05-06 16:29 59.69512 15.64244 29419 ft 387 kts 275°
2026-05-06 16:29 59.70090 15.59022 29695 ft 388 kts 274°
2026-05-06 16:29 59.70667 15.53791 29967 ft 389 kts 274°
2026-05-06 16:29 59.71243 15.48540 30189 ft 391 kts 274°
2026-05-06 16:30 59.71819 15.43255 30386 ft 393 kts 274°
2026-05-06 16:30 59.72201 15.39751 30516 ft 394 kts 274°
2026-05-06 16:30 59.72975 15.32638 30785 ft 396 kts 274°
2026-05-06 16:30 59.73552 15.27314 31048 ft 395 kts 274°
2026-05-06 16:31 59.74126 15.21984 31350 ft 395 kts 275°
2026-05-06 16:31 59.74698 15.16658 31636 ft 394 kts 275°
2026-05-06 16:31 59.75269 15.11344 31908 ft 394 kts 275°
2026-05-06 16:31 59.75836 15.06034 32164 ft 394 kts 275°
2026-05-06 16:32 59.76402 15.00718 32425 ft 393 kts 275°
2026-05-06 16:32 59.76962 14.95406 32684 ft 393 kts 275°
2026-05-06 16:32 59.77517 14.90099 32936 ft 393 kts 275°
2026-05-06 16:32 59.78070 14.84779 33199 ft 393 kts 275°
2026-05-06 16:33 59.78618 14.79471 33464 ft 393 kts 275°
2026-05-06 16:33 59.79167 14.74150 33727 ft 393 kts 275°
2026-05-06 16:33 59.79717 14.68836 33965 ft 393 kts 275°
2026-05-06 16:34 59.80817 14.58189 34424 ft 393 kts 275°
2026-05-06 16:34 59.81363 14.52871 34668 ft 392 kts 275°
2026-05-06 16:34 59.81905 14.47559 34858 ft 392 kts 275°
2026-05-06 16:34 59.82438 14.42302 35028 ft 393 kts 275°
2026-05-06 16:35 59.82975 14.36958 35183 ft 394 kts 275°
2026-05-06 16:35 59.83512 14.31597 35338 ft 395 kts 275°
2026-05-06 16:35 59.84048 14.26233 35496 ft 396 kts 276°
2026-05-06 16:35 59.84584 14.20858 35650 ft 396 kts 276°
2026-05-06 16:36 59.84939 14.17285 35749 ft 397 kts 276°
2026-05-06 16:36 59.85473 14.11894 35877 ft 398 kts 276°
2026-05-06 16:36 59.86004 14.06493 36022 ft 399 kts 276°
2026-05-06 16:36 59.86535 14.01069 36151 ft 399 kts 276°
2026-05-06 16:37 59.87065 13.95629 36305 ft 400 kts 276°
2026-05-06 16:37 59.87594 13.90186 36435 ft 401 kts 276°
2026-05-06 16:37 59.88123 13.84727 36556 ft 402 kts 276°
2026-05-06 16:37 59.88650 13.79265 36680 ft 402 kts 276°
2026-05-06 16:38 59.89174 13.73772 36839 ft 402 kts 276°
2026-05-06 16:38 59.90213 13.62788 36923 ft 404 kts 276°
2026-05-06 16:39 59.91248 13.51838 36921 ft 405 kts 276°
2026-05-06 16:39 59.92277 13.40803 36921 ft 405 kts 276°
2026-05-06 16:40 59.93294 13.29772 36945 ft 405 kts 276°
2026-05-06 16:40 59.94308 13.18686 36916 ft 406 kts 276°
2026-05-06 16:41 59.95317 13.07573 36917 ft 407 kts 276°
2026-05-06 16:41 59.96318 12.96463 36919 ft 407 kts 276°
2026-05-06 16:42 59.97306 12.85394 36921 ft 407 kts 276°
2026-05-06 16:42 59.98278 12.74250 36922 ft 407 kts 275°
2026-05-06 16:43 59.99237 12.63091 36925 ft 408 kts 275°
2026-05-06 16:43 60.00195 12.51925 36925 ft 407 kts 275°
2026-05-06 16:44 60.01144 12.40759 36926 ft 408 kts 275°
2026-05-06 16:44 60.01955 12.29559 36928 ft 407 kts 273°
2026-05-06 16:45 60.02593 12.18335 36929 ft 406 kts 272°
2026-05-06 16:45 60.03213 12.07099 36928 ft 406 kts 272°
2026-05-06 16:46 60.03863 11.95856 36958 ft 407 kts 273°
2026-05-06 16:46 60.04518 11.84605 36947 ft 407 kts 273°
2026-05-06 16:47 60.05161 11.73355 36940 ft 407 kts 273°
2026-05-06 16:47 60.05795 11.62108 36935 ft 407 kts 272°
2026-05-06 16:48 60.06412 11.50856 36929 ft 406 kts 272°
2026-05-06 16:48 60.07014 11.39609 36926 ft 406 kts 272°
2026-05-06 16:49 60.07609 11.28410 36947 ft 406 kts 272°
2026-05-06 16:49 60.08204 11.17151 36940 ft 407 kts 272°
2026-05-06 16:50 60.08788 11.05867 36933 ft 407 kts 272°
2026-05-06 16:50 60.09354 10.94597 36934 ft 407 kts 272°
2026-05-06 16:51 60.09920 10.83307 36929 ft 407 kts 272°
2026-05-06 16:51 60.10476 10.72011 36932 ft 407 kts 272°
2026-05-06 16:52 60.11025 10.60691 36946 ft 408 kts 272°
2026-05-06 16:52 60.11561 10.49386 36880 ft 406 kts 272°
2026-05-06 16:52 60.11818 10.43827 36311 ft 404 kts 272°
2026-05-06 16:53 60.12075 10.38226 35676 ft 402 kts 272°
2026-05-06 16:53 60.12329 10.32661 35093 ft 400 kts 271°
2026-05-06 16:53 60.12580 10.27127 34511 ft 397 kts 271°
2026-05-06 16:53 60.12825 10.21634 33942 ft 394 kts 271°
2026-05-06 16:54 60.13066 10.16177 33284 ft 390 kts 271°
2026-05-06 16:54 60.13302 10.10801 32769 ft 384 kts 270°
2026-05-06 16:54 60.13534 10.05502 32247 ft 378 kts 270°
2026-05-06 16:54 60.13763 10.00278 31969 ft 374 kts 270°
2026-05-06 16:55 60.13988 9.95097 31898 ft 372 kts 270°
2026-05-06 16:55 60.14206 9.90010 31911 ft 360 kts 269°
2026-05-06 16:55 60.14416 9.85033 31926 ft 355 kts 269°
2026-05-06 16:56 60.14825 9.75162 31917 ft 354 kts 269°
2026-05-06 16:56 60.15077 9.65410 31923 ft 347 kts 258°
2026-05-06 16:56 60.14382 9.60828 31931 ft 344 kts 246°
2026-05-06 16:57 60.13402 9.56443 31932 ft 344 kts 245°
2026-05-06 16:57 60.11397 9.47729 31906 ft 345 kts 245°
2026-05-06 16:58 60.09376 9.38975 31926 ft 346 kts 244°
2026-05-06 16:58 60.07344 9.30225 31950 ft 346 kts 244°
2026-05-06 16:59 60.05646 9.21251 31938 ft 349 kts 261°
2026-05-06 16:59 60.05740 9.16357 31945 ft 357 kts 273°
2026-05-06 16:59 60.06131 9.11452 31938 ft 358 kts 273°
2026-05-06 17:00 60.06947 9.01600 31958 ft 358 kts 273°
2026-05-06 17:00 60.07752 8.91763 31964 ft 358 kts 273°
2026-05-06 17:01 60.08540 8.81928 31962 ft 358 kts 273°
2026-05-06 17:01 60.09325 8.72093 31982 ft 357 kts 273°
2026-05-06 17:02 60.10097 8.62247 31984 ft 358 kts 273°
2026-05-06 17:02 60.10854 8.52388 32000 ft 358 kts 273°
2026-05-06 17:03 60.11604 8.42581 31997 ft 358 kts 273°
2026-05-06 17:03 60.12360 8.32703 32000 ft 358 kts 273°
2026-05-06 17:04 60.13108 8.22827 32013 ft 358 kts 273°
2026-05-06 17:04 60.13840 8.12958 32011 ft 357 kts 273°
2026-05-06 17:04 60.14202 8.08098 31896 ft 347 kts 272°
2026-05-06 17:05 60.14554 8.03370 31561 ft 339 kts 272°
2026-05-06 17:05 60.14896 7.98733 31132 ft 331 kts 272°
2026-05-06 17:05 60.15227 7.94207 30456 ft 324 kts 271°
2026-05-06 17:05 60.15549 7.89786 29779 ft 316 kts 271°
2026-05-06 17:06 60.15859 7.85450 29196 ft 312 kts 271°
2026-05-06 17:06 60.16164 7.81158 28762 ft 308 kts 271°
2026-05-06 17:06 60.16465 7.76914 28308 ft 305 kts 271°
2026-05-06 17:06 60.16762 7.72708 27858 ft 303 kts 271°
2026-05-06 17:07 60.17056 7.68536 27412 ft 300 kts 272°
2026-05-06 17:07 60.17347 7.64404 26958 ft 297 kts 272°
2026-05-06 17:07 60.17633 7.60312 26509 ft 295 kts 272°
2026-05-06 17:07 60.17916 7.56254 26092 ft 292 kts 272°
2026-05-06 17:08 60.18192 7.52273 25843 ft 292 kts 273°
2026-05-06 17:08 60.18470 7.48241 25588 ft 291 kts 273°
2026-05-06 17:08 60.18749 7.44168 25330 ft 290 kts 273°
2026-05-06 17:08 60.19017 7.40222 25083 ft 288 kts 273°
2026-05-06 17:09 60.19286 7.36226 24832 ft 287 kts 273°
2026-05-06 17:09 60.19554 7.32257 24600 ft 286 kts 274°
2026-05-06 17:09 60.19819 7.28305 24355 ft 284 kts 274°
2026-05-06 17:09 60.20083 7.24377 24110 ft 283 kts 274°
2026-05-06 17:10 60.20342 7.20466 23901 ft 282 kts 274°
2026-05-06 17:10 60.20602 7.16562 23616 ft 281 kts 275°
2026-05-06 17:10 60.20860 7.12680 23255 ft 279 kts 275°
2026-05-06 17:10 60.21115 7.08819 22916 ft 278 kts 275°
2026-05-06 17:11 60.21368 7.04972 22591 ft 277 kts 275°
2026-05-06 17:11 60.21619 7.01140 22255 ft 276 kts 275°
2026-05-06 17:11 60.21868 6.97312 21933 ft 275 kts 275°
2026-05-06 17:11 60.22117 6.93503 21598 ft 274 kts 275°
2026-05-06 17:12 60.22365 6.89701 21265 ft 274 kts 275°
2026-05-06 17:12 60.22609 6.85916 20930 ft 273 kts 275°
2026-05-06 17:12 60.22849 6.82143 20589 ft 272 kts 275°
2026-05-06 17:12 60.23088 6.78374 20246 ft 271 kts 275°
2026-05-06 17:13 60.23324 6.74622 19899 ft 270 kts 275°
2026-05-06 17:13 60.23558 6.70864 19560 ft 270 kts 275°
2026-05-06 17:13 60.23791 6.67128 19256 ft 268 kts 276°
2026-05-06 17:13 60.24019 6.63492 18886 ft 263 kts 276°
2026-05-06 17:14 60.24288 6.59869 18498 ft 262 kts 281°
2026-05-06 17:14 60.24864 6.56382 18060 ft 264 kts 290°
2026-05-06 17:14 60.25692 6.53025 17648 ft 264 kts 293°
2026-05-06 17:14 60.26500 6.49744 17269 ft 265 kts 292°
2026-05-06 17:15 60.27314 6.46414 16880 ft 264 kts 292°
2026-05-06 17:15 60.28122 6.43091 16504 ft 265 kts 292°
2026-05-06 17:15 60.28934 6.39739 16120 ft 265 kts 293°
2026-05-06 17:15 60.29746 6.36389 15743 ft 266 kts 293°
2026-05-06 17:16 60.30559 6.33030 15368 ft 267 kts 294°
2026-05-06 17:16 60.31378 6.29656 15013 ft 268 kts 294°
2026-05-06 17:16 60.32206 6.26249 14481 ft 271 kts 295°
2026-05-06 17:16 60.33046 6.22792 13705 ft 276 kts 295°
2026-05-06 17:17 60.33894 6.19285 12929 ft 278 kts 295°
2026-05-06 17:17 60.34738 6.15779 12330 ft 279 kts 295°
2026-05-06 17:17 60.35581 6.12274 11993 ft 276 kts 295°
2026-05-06 17:17 60.36420 6.08787 11660 ft 275 kts 295°
2026-05-06 17:18 60.37252 6.05325 11300 ft 273 kts 295°
2026-05-06 17:18 60.38078 6.01880 10949 ft 272 kts 295°
2026-05-06 17:18 60.38901 5.98448 10602 ft 270 kts 295°
2026-05-06 17:18 60.39717 5.95042 10253 ft 269 kts 295°
2026-05-06 17:19 60.40525 5.91651 10034 ft 267 kts 295°
2026-05-06 17:19 60.41331 5.88256 10031 ft 268 kts 295°
2026-05-06 17:19 60.42139 5.84855 10034 ft 268 kts 295°
2026-05-06 17:19 60.42934 5.81511 10031 ft 261 kts 295°
2026-05-06 17:20 60.43693 5.78309 9956 ft 249 kts 295°
2026-05-06 17:20 60.44423 5.75225 9689 ft 237 kts 295°
2026-05-06 17:20 60.45126 5.72241 9191 ft 233 kts 294°
2026-05-06 17:20 60.45820 5.69295 8634 ft 230 kts 295°
2026-05-06 17:21 60.46508 5.66378 8078 ft 228 kts 295°
2026-05-06 17:21 60.47378 5.63692 7630 ft 229 kts 313°
2026-05-06 17:21 60.48691 5.61874 7278 ft 231 kts 335°
2026-05-06 17:21 60.50267 5.61217 6942 ft 234 kts 357°
2026-05-06 17:22 60.51896 5.61255 6574 ft 234 kts 358°
2026-05-06 17:22 60.52974 5.61245 6325 ft 232 kts 352°
2026-05-06 17:22 60.54535 5.60588 5993 ft 227 kts 338°
2026-05-06 17:22 60.56021 5.59523 5747 ft 223 kts 338°
2026-05-06 17:23 60.57437 5.58523 5512 ft 209 kts 338°
2026-05-06 17:23 60.58774 5.57462 5061 ft 203 kts 328°
2026-05-06 17:23 60.59885 5.55800 5185 ft 196 kts 311°
2026-05-06 17:23 60.60745 5.53766 5462 ft 192 kts 311°
2026-05-06 17:24 60.61790 5.51974 5582 ft 195 kts 326°
2026-05-06 17:24 60.62941 5.50534 5784 ft 196 kts 324°
2026-05-06 17:24 60.63978 5.48624 5691 ft 209 kts 306°
2026-05-06 17:24 60.64635 5.45914 5564 ft 222 kts 276°
2026-05-06 17:25 60.64294 5.42820 5490 ft 234 kts 237°
2026-05-06 17:25 60.63114 5.40492 5594 ft 238 kts 223°
2026-05-06 17:25 60.62142 5.37784 5815 ft 243 kts 249°
2026-05-06 17:25 60.61511 5.34768 6046 ft 221 kts 243°
2026-05-06 17:26 60.60774 5.32108 5878 ft 214 kts 241°
2026-05-06 17:26 60.60069 5.29469 5585 ft 212 kts 250°
2026-05-06 17:26 60.59791 5.26564 5295 ft 208 kts 265°
2026-05-06 17:26 60.59701 5.23627 5049 ft 205 kts 268°
2026-05-06 17:27 60.59636 5.20775 4996 ft 200 kts 268°
2026-05-06 17:27 60.59575 5.17946 5000 ft 200 kts 268°
2026-05-06 17:27 60.59515 5.15141 5000 ft 198 kts 268°
2026-05-06 17:27 60.59454 5.12324 5001 ft 200 kts 268°
2026-05-06 17:28 60.59392 5.09502 5002 ft 199 kts 268°
2026-05-06 17:28 60.59333 5.06739 4874 ft 195 kts 268°
2026-05-06 17:28 60.59275 5.04075 4766 ft 181 kts 268°
2026-05-06 17:28 60.59051 5.01616 4413 ft 177 kts 245°
2026-05-06 17:29 60.58237 4.99744 4102 ft 181 kts 214°
2026-05-06 17:29 60.57026 4.99124 3994 ft 186 kts 179°
2026-05-06 17:29 60.55815 5.00076 3998 ft 194 kts 141°
2026-05-06 17:29 60.54868 5.02056 4004 ft 195 kts 138°
2026-05-06 17:30 60.53874 5.03938 4000 ft 194 kts 140°
2026-05-06 17:30 60.52871 5.05745 3889 ft 191 kts 141°
2026-05-06 17:30 60.51870 5.07543 3564 ft 192 kts 141°
2026-05-06 17:30 60.50871 5.09350 3262 ft 192 kts 141°
2026-05-06 17:31 60.49878 5.11156 2955 ft 192 kts 141°
2026-05-06 17:31 60.48892 5.12954 2662 ft 190 kts 140°
2026-05-06 17:31 60.47897 5.14721 2427 ft 189 kts 147°
2026-05-06 17:31 60.46730 5.15881 2403 ft 186 kts 167°
2026-05-06 17:32 60.45512 5.16351 2400 ft 173 kts 174°
2026-05-06 17:32 60.44345 5.16747 2402 ft 168 kts 174°
2026-05-06 17:32 60.43196 5.17136 2408 ft 167 kts 174°
2026-05-06 17:32 60.42057 5.17522 2404 ft 166 kts 174°
2026-05-06 17:33 60.40917 5.17907 2321 ft 166 kts 173°
2026-05-06 17:33 60.39783 5.18291 2134 ft 165 kts 174°
2026-05-06 17:33 60.38659 5.18672 1924 ft 164 kts 174°
2026-05-06 17:33 60.37551 5.19047 1703 ft 157 kts 174°
2026-05-06 17:34 60.36509 5.19401 1500 ft 145 kts 174°
2026-05-06 17:34 60.35524 5.19731 1281 ft 145 kts 174°
2026-05-06 17:34 60.34528 5.20066 1070 ft 146 kts 174°
2026-05-06 17:34 60.33533 5.20402 846 ft 145 kts 175°
2026-05-06 17:35 60.32543 5.20758 639 ft 144 kts 172°
2026-05-06 17:35 60.31568 5.21112 463 ft 143 kts 174°
2026-05-06 17:35 60.30598 5.21414 249 ft 140 kts 173°
2026-05-06 17:36 60.29008 5.21935 163 ft 72 kts 172°
2026-05-06 17:36 60.28704 5.22027 162 ft 24 kts 157°
2026-05-06 17:36 60.28672 5.22163 161 ft 0 kts 96°
2026-05-06 17:37 60.28672 5.22194 162 ft 5 kts 82°
2026-05-06 17:37 60.28673 5.22213 163 ft 0 kts 82°
2026-05-06 17:37 60.28674 5.22217 163 ft 2 kts 82°
2026-05-06 17:37 60.28674 5.22222 163 ft 0 kts 82°
2026-05-06 17:39 60.28675 5.22242 164 ft 1 kts 82°
2026-05-06 17:39 60.28697 5.22327 167 ft 10 kts 41°
2026-05-06 17:39 60.28749 5.22336 169 ft 6 kts 353°
2026-05-06 17:39 60.28788 5.22324 170 ft 6 kts 351°
2026-05-06 17:40 60.28840 5.22307 171 ft 8 kts 350°
2026-05-06 17:40 60.28899 5.22287 171 ft 8 kts 358°
2026-05-06 17:40 60.28930 5.22334 174 ft 7 kts 72°
2026-05-06 17:40 60.28904 5.22401 175 ft 7 kts 141°
2026-05-06 17:41 60.28895 5.22484 175 ft 5 kts 86°
2026-05-06 17:41 60.28897 5.22547 175 ft 0 kts 86°